Location: B�rgermoos
(47.6500°N, 9.0667°E)
Time: 08:24:56
(UTC+00:00)

Vanguard 1 - Pass Details

Date: 09 August 2021
Orbit: 652 x 3831 km, 34.3° (Epoch: 19 September)

Event Time Altitude Azimuth Distance (km) Brightness Sun altitude
Rises 08:59:48 0° 234° (SW) 2,999 12.4 45.7°
Reaches altitude 10° 09:02:48 10° 213° (SSW) 2,047 11.9 46.1°
Maximum altitude 09:05:38 17° 172° (S) 1,710 12.0 46.5°
Drops below altitude 10° 09:08:45 10° 132° (SE) 2,273 12.9 46.9°
Sets 09:12:23 0° 112° (ESE) 3,515 13.6 47.4°
